TimeCST,TemperatureF,Dew PointF,Humidity,Sea Level PressureIn,VisibilityMPH,Wind Direction,Wind SpeedMPH,Gust SpeedMPH,PrecipitationIn,Events,Conditions,WindDirDegrees,DateUTC
12:53 AM,37.9,30.9,76,29.82,10.0,SSW,6.9,-,N/A,,Overcast,210,2013-11-14 06:53:00
1:53 AM,37.9,30.9,76,29.82,10.0,WSW,9.2,-,N/A,,Overcast,250,2013-11-14 07:53:00
2:53 AM,37.0,30.9,79,29.81,10.0,SW,5.8,-,N/A,,Mostly Cloudy,220,2013-11-14 08:53:00
3:53 AM,33.1,28.0,82,29.82,10.0,SSW,3.5,-,N/A,,Clear,210,2013-11-14 09:53:00
4:53 AM,32.0,28.0,85,29.81,10.0,West,3.5,-,N/A,,Clear,260,2013-11-14 10:53:00
5:53 AM,28.9,25.0,85,29.81,10.0,Calm,Calm,-,N/A,,Overcast,0,2013-11-14 11:53:00
6:53 AM,30.9,28.0,89,29.80,10.0,South,5.8,-,N/A,,Scattered Clouds,180,2013-11-14 12:53:00
7:53 AM,26.1,24.1,92,29.81,8.0,Calm,Calm,-,N/A,,Clear,0,2013-11-14 13:53:00
8:53 AM,33.1,28.9,85,29.83,10.0,NNW,4.6,-,N/A,,Partly Cloudy,330,2013-11-14 14:53:00
9:53 AM,39.9,30.9,70,29.85,10.0,NNW,8.1,-,N/A,,Partly Cloudy,340,2013-11-14 15:53:00
10:53 AM,42.1,32.0,67,29.86,10.0,NW,10.4,-,N/A,,Partly Cloudy,320,2013-11-14 16:53:00
11:34 AM,44.6,33.8,66,29.82,10.0,NW,10.4,-,N/A,,Mostly Cloudy,320,2013-11-14 17:34:00
11:53 AM,46.0,34.0,63,29.84,10.0,NNW,10.4,-,N/A,,Mostly Cloudy,330,2013-11-14 17:53:00
12:06 PM,46.4,33.8,62,29.80,10.0,NW,9.2,-,N/A,,Scattered Clouds,320,2013-11-14 18:06:00
12:29 PM,44.6,33.8,66,29.80,10.0,NW,10.4,-,N/A,,Mostly Cloudy,320,2013-11-14 18:29:00
12:53 PM,44.1,34.0,68,29.83,10.0,NW,10.4,-,N/A,,Overcast,310,2013-11-14 18:53:00
1:53 PM,44.1,35.1,71,29.81,6.0,NW,8.1,-,N/A,,Haze,310,2013-11-14 19:53:00
2:43 PM,44.6,35.6,71,29.78,10.0,NW,4.6,-,N/A,,Scattered Clouds,310,2013-11-14 20:43:00
2:53 PM,45.0,35.1,68,29.80,10.0,WNW,4.6,-,N/A,,Partly Cloudy,300,2013-11-14 20:53:00
3:11 PM,44.6,35.6,71,29.77,10.0,West,5.8,-,N/A,,Mostly Cloudy,280,2013-11-14 21:11:00
3:33 PM,44.6,35.6,71,29.77,10.0,Calm,Calm,-,N/A,,Scattered Clouds,0,2013-11-14 21:33:00
3:53 PM,44.1,35.1,71,29.79,10.0,South,4.6,-,N/A,,Scattered Clouds,170,2013-11-14 21:53:00
4:53 PM,39.0,33.1,79,29.79,10.0,South,5.8,-,N/A,,Clear,180,2013-11-14 22:53:00
5:53 PM,42.1,35.1,76,29.78,10.0,South,6.9,-,N/A,,Overcast,170,2013-11-14 23:53:00
6:53 PM,41.0,34.0,76,29.78,10.0,South,8.1,-,0.00,,Overcast,170,2013-11-15 00:53:00
7:53 PM,39.0,33.1,79,29.78,10.0,South,8.1,-,N/A,,Mostly Cloudy,180,2013-11-15 01:53:00
8:53 PM,34.0,30.9,89,29.79,10.0,SSW,8.1,-,N/A,,Clear,210,2013-11-15 02:53:00
9:53 PM,33.1,30.0,89,29.80,10.0,WSW,4.6,-,N/A,,Clear,240,2013-11-15 03:53:00
10:53 PM,33.1,28.9,85,29.80,10.0,West,8.1,-,N/A,,Clear,270,2013-11-15 04:53:00
11:53 PM,28.9,26.1,89,29.81,8.0,West,8.1,-,N/A,,Clear,270,2013-11-15 05:53:00